Flag for U.S.A. Weather past 2 weeks in Billings, Montana, U.S.A.

Now
74 °F

Partly sunny.


Feels Like: 77 °F
Forecast: 50 / 73 °F
Wind: 9 mph from Northwest

Location: Billings Logan International Airport

Current Time: Sep 19, 2014 at 6:54:11 PM

Latest Report: Sep 19, 2014 at 5:53 PM


Visibility: 10 mi

Pressure: 29.86 "Hg

Humidity: 32%

Dew point: 42 °F

Location of BillingsLocation

Historic Weather in Billings — Graph

°F

Billings temperature yesterday

Maximum temperature yesterday: 71 °F (at 4:53 PM)
Minimum temperature yesterday: 62 °F (at 1:53 AM)
Average temperature yesterday: 66 °F

Past Weeks' High & Low Weather Summary

 TemperatureHumidityPressure
High89 °F (Sep 8, 2:53 PM)97% (Sep 9, 11:53 PM)30.58 "Hg (Sep 9, 11:53 PM)
Low30 °F (Sep 12, 3:45 AM)8% (Sep 8, 2:53 PM)29.62 "Hg (Sep 8, 3:53 PM)
Average57 °F56%30.05 "Hg
* Reported Sep 4 5:53 PM — Sep 19 5:53 PM, Billings, Weather by CustomWeather, © 2014

Note: Actual official high and low records may vary slightly from our data, if they occured in-between our weather recording intervals... More about our weather records

Advertising

Billings weather history for previous 24 hours

 ConditionsComfort  
Time TempWeatherWind HumidityBarometerVisibility
5:53 PM
Sep 19
74 °FPartly sunny.9 mph32%29.86 "Hg10 mi
4:53 PM74 °FScattered clouds.14 mph33%29.85 "Hg10 mi
3:53 PM76 °FScattered clouds.17 mph30%29.83 "Hg10 mi
2:53 PM78 °FScattered clouds.15 mph28%29.82 "Hg10 mi
1:53 PM77 °FScattered clouds.21 mph31%29.81 "Hg10 mi
12:53 PM77 °FBroken clouds.17 mph33%29.82 "Hg10 mi
11:53 AM76 °FScattered clouds.21 mph32%29.83 "Hg10 mi
10:53 AM69 °FScattered clouds.12 mph53%29.83 "Hg10 mi
9:53 AM64 °FScattered clouds.12 mph68%29.84 "Hg10 mi
8:53 AM60 °FScattered clouds.12 mph72%29.83 "Hg10 mi
7:53 AM60 °FPassing clouds.14 mph69%29.82 "Hg10 mi
6:53 AM60 °FPassing clouds.10 mph69%29.81 "Hg10 mi
5:53 AM62 °FClear.14 mph65%29.78 "Hg10 mi
4:53 AM59 °FPassing clouds.12 mph75%29.75 "Hg10 mi
3:53 AM64 °FPassing clouds.12 mph63%29.74 "Hg10 mi
2:53 AM63 °FPassing clouds.15 mph68%29.73 "Hg10 mi
1:53 AM64 °FMostly cloudy.8 mph65%29.74 "Hg10 mi
12:53 AM64 °FMostly cloudy.20 mph73%29.75 "Hg10 mi
11:53 PM
Sep 18
64 °FPartly cloudy.15 mph73%29.72 "Hg10 mi
10:53 PM64 °FOvercast.10 mph70%29.72 "Hg10 mi
9:53 PM64 °FPassing clouds.12 mph70%29.71 "Hg10 mi
8:53 PM64 °FPassing clouds.9 mph70%29.71 "Hg10 mi
7:53 PM64 °FPartly sunny.15 mph73%29.71 "Hg10 mi
6:53 PM64 °FBroken clouds.13 mph73%29.71 "Hg10 mi
Weather by CustomWeather, © 2014

See weather overviewHow to use our weather pages